Year,Month,Day,Hour,Minute,Value (Times are PST for temperature in C)
2015,05,19,10,12,21.80
2015,05,19,10,13,21.90
2015,05,19,10,14,22.00
2015,05,19,10,15,22.20
2015,05,19,10,16,22.30
2015,05,19,10,17,22.30
2015,05,19,10,18,22.40
2015,05,19,10,19,22.40
2015,05,19,10,20,22.40
2015,05,19,10,21,22.40
2015,05,19,10,22,22.40
2015,05,19,10,23,22.40
2015,05,19,10,24,22.30
2015,05,19,10,25,22.30
2015,05,19,10,26,22.20
2015,05,19,10,27,22.20
2015,05,19,10,28,22.10
2015,05,19,10,29,22.10
2015,05,19,10,30,22.10
2015,05,19,10,31,22.10
2015,05,19,10,32,22.10
2015,05,19,10,33,22.10
2015,05,19,10,34,22.10
2015,05,19,10,35,22.20
2015,05,19,10,36,22.20
2015,05,19,10,37,22.30
2015,05,19,10,38,22.30
2015,05,19,10,39,22.30
2015,05,19,10,40,22.40
2015,05,19,10,41,22.50
2015,05,19,10,42,22.60
2015,05,19,10,43,22.70
2015,05,19,10,44,22.80
2015,05,19,10,45,22.70
2015,05,19,10,46,22.70
2015,05,19,10,47,22.70
2015,05,19,10,48,22.70
2015,05,19,10,49,22.80
2015,05,19,10,50,22.80
2015,05,19,10,51,22.70
2015,05,19,10,52,22.80
2015,05,19,10,53,22.80
2015,05,19,10,54,22.80
2015,05,19,10,55,22.80
2015,05,19,10,56,22.80
2015,05,19,10,57,22.90
2015,05,19,10,58,22.90
2015,05,19,10,59,22.90
2015,05,19,11,00,22.90
2015,05,19,11,01,22.90
2015,05,19,11,02,22.90
2015,05,19,11,03,22.90
2015,05,19,11,04,22.90
2015,05,19,11,05,22.90
2015,05,19,11,06,22.80
2015,05,19,11,07,22.80
2015,05,19,11,08,22.70
2015,05,19,11,09,22.60
2015,05,19,11,10,22.60
2015,05,19,11,11,22.60
2015,05,19,11,12,22.70
2015,05,19,11,13,22.70
2015,05,19,11,14,22.80
2015,05,19,11,15,22.80
2015,05,19,11,16,22.90
2015,05,19,11,17,22.90
2015,05,19,11,18,22.90
2015,05,19,11,19,22.90
2015,05,19,11,20,22.90
2015,05,19,11,21,23.00
2015,05,19,11,22,23.00
2015,05,19,11,23,23.10
2015,05,19,11,24,23.00
2015,05,19,11,25,23.00
2015,05,19,11,26,23.00
2015,05,19,11,27,23.00
2015,05,19,11,28,23.00
2015,05,19,11,29,23.00
2015,05,19,11,30,23.10
2015,05,19,11,31,23.10
2015,05,19,11,32,23.00
2015,05,19,11,33,23.00
2015,05,19,11,34,23.00
2015,05,19,11,35,23.20
2015,05,19,11,36,23.30
2015,05,19,11,37,23.40
2015,05,19,11,38,23.40
2015,05,19,11,39,23.50
2015,05,19,11,40,23.60
2015,05,19,11,41,23.60
2015,05,19,11,42,23.70
2015,05,19,11,43,23.70
2015,05,19,11,44,23.70
2015,05,19,11,45,23.80
2015,05,19,11,46,23.90
2015,05,19,11,47,24.00
2015,05,19,11,48,24.10
2015,05,19,11,49,24.20
2015,05,19,11,50,24.20
2015,05,19,11,51,24.20
2015,05,19,11,52,24.10
2015,05,19,11,53,24.10
2015,05,19,11,54,24.10
2015,05,19,11,55,24.10
2015,05,19,11,56,24.00
2015,05,19,11,57,23.90
2015,05,19,11,58,23.80
2015,05,19,11,59,23.80
2015,05,19,12,00,23.90
2015,05,19,12,01,24.00
2015,05,19,12,02,24.10
2015,05,19,12,03,24.10
2015,05,19,12,04,24.20
2015,05,19,12,05,24.30
2015,05,19,12,06,24.30
2015,05,19,12,07,24.30
2015,05,19,12,08,24.30
2015,05,19,12,09,24.20
2015,05,19,12,10,24.10
2015,05,19,12,11,24.00
2015,05,19,12,12,24.00
2015,05,19,12,13,23.90
2015,05,19,12,14,23.90
2015,05,19,12,15,24.00
2015,05,19,12,16,24.10
2015,05,19,12,17,24.20
2015,05,19,12,18,24.30
2015,05,19,12,19,24.40
2015,05,19,12,20,24.50
2015,05,19,12,21,24.60
2015,05,19,12,22,24.60
2015,05,19,12,23,24.60
2015,05,19,12,24,24.60
2015,05,19,12,25,24.50
2015,05,19,12,26,24.40
2015,05,19,12,27,24.40
2015,05,19,12,28,24.40
2015,05,19,12,29,24.40
2015,05,19,12,30,24.30
2015,05,19,12,31,24.10
2015,05,19,12,32,24.20
2015,05,19,12,33,24.20
2015,05,19,12,34,24.30
2015,05,19,12,35,24.40
2015,05,19,12,36,24.50
2015,05,19,12,37,24.60
2015,05,19,12,38,24.70
2015,05,19,12,39,24.80
2015,05,19,12,40,24.80
2015,05,19,12,41,24.80
2015,05,19,12,42,24.80
2015,05,19,12,43,24.70
2015,05,19,12,44,24.70
2015,05,19,12,45,24.70
2015,05,19,12,46,24.70
2015,05,19,12,47,24.70
2015,05,19,12,48,24.70
2015,05,19,12,49,24.80
2015,05,19,12,50,24.80
2015,05,19,12,51,24.80
2015,05,19,12,52,24.80
2015,05,19,12,53,24.70
2015,05,19,12,54,24.70
2015,05,19,12,55,24.70
2015,05,19,12,56,24.70
2015,05,19,12,57,24.80
2015,05,19,12,58,24.90
2015,05,19,12,59,24.90
2015,05,19,13,00,25.00
2015,05,19,13,01,25.10
2015,05,19,13,02,25.10
2015,05,19,13,03,25.20
2015,05,19,13,04,25.20
2015,05,19,13,05,25.20
2015,05,19,13,06,25.20
2015,05,19,13,07,25.30
2015,05,19,13,08,25.20
2015,05,19,13,09,25.30
2015,05,19,13,10,25.30
2015,05,19,13,11,25.30
2015,05,19,13,12,25.40
2015,05,19,13,13,25.40
2015,05,19,13,14,25.30
2015,05,19,13,15,25.20
2015,05,19,13,16,25.10
2015,05,19,13,17,25.10
2015,05,19,13,18,25.20
2015,05,19,13,19,25.30
2015,05,19,13,20,25.30
2015,05,19,13,21,25.20
2015,05,19,13,22,25.20
2015,05,19,13,23,25.10
2015,05,19,13,24,25.20
2015,05,19,13,25,25.20
2015,05,19,13,26,25.20
2015,05,19,13,27,25.10
2015,05,19,13,28,25.10
2015,05,19,13,29,25.20
2015,05,19,13,30,25.30
2015,05,19,13,31,25.30
2015,05,19,13,32,25.30
2015,05,19,13,33,25.30
2015,05,19,13,34,25.40
2015,05,19,13,35,25.30
2015,05,19,13,36,25.30
2015,05,19,13,37,25.40
2015,05,19,13,38,25.50
2015,05,19,13,39,25.60
2015,05,19,13,40,25.50
2015,05,19,13,41,25.40
2015,05,19,13,42,25.40
2015,05,19,13,43,25.50
2015,05,19,13,44,25.60
2015,05,19,13,45,25.80
2015,05,19,13,46,26.10
2015,05,19,13,47,26.30
2015,05,19,13,48,26.30
2015,05,19,13,49,26.30
2015,05,19,13,50,26.30
2015,05,19,13,51,26.40
2015,05,19,13,52,26.30
2015,05,19,13,53,26.30
2015,05,19,13,54,26.20
2015,05,19,13,55,26.20
2015,05,19,13,56,26.10
2015,05,19,13,57,26.00
2015,05,19,13,58,26.00
2015,05,19,13,59,26.00
2015,05,19,14,00,26.00
2015,05,19,14,01,25.90
2015,05,19,14,02,25.90
2015,05,19,14,03,25.80
2015,05,19,14,04,25.70
2015,05,19,14,05,25.60
2015,05,19,14,06,25.50
2015,05,19,14,07,25.40
2015,05,19,14,08,25.40
2015,05,19,14,09,25.40
2015,05,19,14,10,25.30
2015,05,19,14,11,25.20
2015,05,19,14,12,25.20
2015,05,19,14,13,25.20
2015,05,19,14,14,25.20
2015,05,19,14,15,25.20
2015,05,19,14,16,25.20
2015,05,19,14,17,25.30
2015,05,19,14,18,25.40
2015,05,19,14,19,25.50
2015,05,19,14,20,25.60
2015,05,19,14,21,25.70
2015,05,19,14,22,25.80
2015,05,19,14,23,25.80
2015,05,19,14,24,25.90
2015,05,19,14,25,26.00
2015,05,19,14,26,26.10
2015,05,19,14,27,26.20
2015,05,19,14,28,26.40
2015,05,19,14,29,26.30
2015,05,19,14,30,26.20
2015,05,19,14,31,26.20
2015,05,19,14,32,26.10
2015,05,19,14,33,26.10
2015,05,19,14,34,26.10
2015,05,19,14,35,25.90
2015,05,19,14,36,25.80
2015,05,19,14,37,25.90
2015,05,19,14,38,25.90
2015,05,19,14,39,25.90
2015,05,19,14,40,25.90
2015,05,19,14,41,26.00
2015,05,19,14,42,26.00
2015,05,19,14,43,26.10
2015,05,19,14,44,26.20
2015,05,19,14,45,26.20
2015,05,19,14,46,26.20
2015,05,19,14,47,26.20
2015,05,19,14,48,26.40
2015,05,19,14,49,26.50
2015,05,19,14,50,26.50
2015,05,19,14,51,26.40
2015,05,19,14,52,26.30
2015,05,19,14,53,26.20
2015,05,19,14,54,26.30
2015,05,19,14,55,26.30
2015,05,19,14,56,26.30
2015,05,19,14,57,26.30
2015,05,19,14,58,26.40
2015,05,19,14,59,26.40
2015,05,19,15,00,26.30
2015,05,19,15,01,26.20
2015,05,19,15,02,26.00
2015,05,19,15,03,25.80
2015,05,19,15,04,25.50
2015,05,19,15,05,25.30
2015,05,19,15,06,25.20
2015,05,19,15,07,25.10
2015,05,19,15,08,25.10
2015,05,19,15,09,25.00
2015,05,19,15,10,25.00
2015,05,19,15,11,24.90
2015,05,19,15,12,24.90
2015,05,19,15,13,24.90
2015,05,19,15,14,24.90
2015,05,19,15,15,24.80
2015,05,19,15,16,24.80
2015,05,19,15,17,24.70
2015,05,19,15,18,24.60
2015,05,19,15,19,24.60
2015,05,19,15,20,24.60
2015,05,19,15,21,24.60
2015,05,19,15,22,24.70
2015,05,19,15,23,24.60
2015,05,19,15,24,24.60
2015,05,19,15,25,24.60
2015,05,19,15,26,24.70
2015,05,19,15,27,24.70
2015,05,19,15,28,24.70
2015,05,19,15,29,24.70
2015,05,19,15,30,24.80
2015,05,19,15,31,24.80
2015,05,19,15,32,24.90
2015,05,19,15,33,24.80
2015,05,19,15,34,24.70
2015,05,19,15,35,24.50
2015,05,19,15,36,24.40
2015,05,19,15,37,24.30
2015,05,19,15,38,24.20
2015,05,19,15,39,24.20
2015,05,19,15,40,24.10
2015,05,19,15,41,23.90
2015,05,19,15,42,23.80
2015,05,19,15,43,23.70
2015,05,19,15,44,23.60
2015,05,19,15,45,23.50
2015,05,19,15,46,23.50
2015,05,19,15,47,23.40
2015,05,19,15,48,23.40
2015,05,19,15,49,23.20
2015,05,19,15,50,23.10
2015,05,19,15,51,22.90
2015,05,19,15,52,22.80
2015,05,19,15,53,22.70
2015,05,19,15,54,22.60
2015,05,19,15,55,22.50
2015,05,19,15,56,22.40
2015,05,19,15,57,22.30
2015,05,19,15,58,22.30
2015,05,19,15,59,22.30
2015,05,19,16,00,22.20
2015,05,19,16,01,22.20
2015,05,19,16,02,22.20
2015,05,19,16,03,22.20
2015,05,19,16,04,22.20
2015,05,19,16,05,22.20
2015,05,19,16,06,22.10
2015,05,19,16,07,22.10
2015,05,19,16,08,22.10
2015,05,19,16,09,22.10
2015,05,19,16,10,22.10
2015,05,19,16,11,22.00
2015,05,19,16,12,22.00
2015,05,19,16,13,21.90
2015,05,19,16,14,21.80
2015,05,19,16,15,21.80
2015,05,19,16,16,21.70
2015,05,19,16,17,21.70
2015,05,19,16,18,21.60
2015,05,19,16,19,21.50
2015,05,19,16,20,21.50
2015,05,19,16,21,21.40
2015,05,19,16,22,21.30
2015,05,19,16,23,21.30
2015,05,19,16,24,21.20
2015,05,19,16,25,21.10
2015,05,19,16,26,21.10
2015,05,19,16,27,21.00
2015,05,19,16,28,21.00
2015,05,19,16,29,21.00
2015,05,19,16,30,21.00
2015,05,19,16,31,20.90
2015,05,19,16,32,20.90
2015,05,19,16,33,20.90
2015,05,19,16,34,20.90
2015,05,19,16,35,20.90
2015,05,19,16,36,20.90
2015,05,19,16,37,20.90
2015,05,19,16,38,20.90
2015,05,19,16,39,20.80
2015,05,19,16,40,20.80
2015,05,19,16,41,20.80
2015,05,19,16,42,20.80
2015,05,19,16,43,20.70
2015,05,19,16,44,20.70
2015,05,19,16,45,20.70
2015,05,19,16,46,20.70
2015,05,19,16,47,20.70
2015,05,19,16,48,20.60
2015,05,19,16,49,20.60
2015,05,19,16,50,20.60
2015,05,19,16,51,20.60
2015,05,19,16,52,20.60
2015,05,19,16,53,20.60
2015,05,19,16,54,20.60
2015,05,19,16,55,20.60
2015,05,19,16,56,20.70
2015,05,19,16,57,20.70
2015,05,19,16,58,20.70
2015,05,19,16,59,20.70
2015,05,19,17,00,20.70
2015,05,19,17,01,20.70
2015,05,19,17,02,20.70
2015,05,19,17,03,20.70
2015,05,19,17,04,20.70
2015,05,19,17,05,20.70
2015,05,19,17,06,20.70
2015,05,19,17,07,20.80
2015,05,19,17,08,20.80
2015,05,19,17,09,20.90
2015,05,19,17,10,20.90
2015,05,19,17,11,21.00
2015,05,19,17,12,21.10
2015,05,19,17,13,21.20
2015,05,19,17,14,21.20
2015,05,19,17,15,21.30
2015,05,19,17,16,21.30
2015,05,19,17,17,21.40
2015,05,19,17,18,21.50
2015,05,19,17,19,21.50
2015,05,19,17,20,21.60
2015,05,19,17,21,21.70
2015,05,19,17,22,21.80
2015,05,19,17,23,21.90
2015,05,19,17,24,22.00
2015,05,19,17,25,22.20
2015,05,19,17,26,22.40
2015,05,19,17,27,22.60
2015,05,19,17,28,22.80
2015,05,19,17,29,23.00
2015,05,19,17,30,23.20
2015,05,19,17,31,23.40
2015,05,19,17,32,23.60
2015,05,19,17,33,23.80
2015,05,19,17,34,23.90
2015,05,19,17,35,24.10
2015,05,19,17,36,24.20
2015,05,19,17,37,24.30
2015,05,19,17,38,24.40
2015,05,19,17,39,24.50
2015,05,19,17,40,24.60
2015,05,19,17,41,24.70
2015,05,19,17,42,24.90
2015,05,19,17,43,25.00
2015,05,19,17,44,25.20
2015,05,19,17,45,25.30
2015,05,19,17,46,25.30
2015,05,19,17,47,25.40
2015,05,19,17,48,25.50
2015,05,19,17,49,25.60
2015,05,19,17,50,25.60
2015,05,19,17,51,25.60
2015,05,19,17,52,25.50
2015,05,19,17,53,25.60
2015,05,19,17,54,25.70
2015,05,19,17,55,25.80
2015,05,19,17,56,25.90
2015,05,19,17,57,25.80
2015,05,19,17,58,25.80
2015,05,19,17,59,25.80
2015,05,19,18,00,25.80
2015,05,19,18,01,25.70
2015,05,19,18,02,25.60
2015,05,19,18,03,25.30
2015,05,19,18,04,25.10
2015,05,19,18,05,25.00
2015,05,19,18,06,24.90
2015,05,19,18,07,24.80
2015,05,19,18,08,24.70
2015,05,19,18,09,24.60
2015,05,19,18,10,24.60
2015,05,19,18,11,24.50
2015,05,19,18,12,24.40
2015,05,19,18,13,24.40
2015,05,19,18,14,24.50
2015,05,19,18,15,24.50
2015,05,19,18,16,24.60
2015,05,19,18,17,24.70
2015,05,19,18,18,24.80
2015,05,19,18,19,25.00
2015,05,19,18,20,25.20
2015,05,19,18,21,25.20
2015,05,19,18,22,25.30
2015,05,19,18,23,25.30
2015,05,19,18,24,25.30
2015,05,19,18,25,25.30
2015,05,19,18,26,25.30
2015,05,19,18,27,25.50
2015,05,19,18,28,25.50
2015,05,19,18,29,25.60
2015,05,19,18,30,25.60
2015,05,19,18,31,25.60
2015,05,19,18,32,25.70
2015,05,19,18,33,25.70
2015,05,19,18,34,25.70
2015,05,19,18,35,25.70
2015,05,19,18,36,25.70
2015,05,19,18,37,25.60
2015,05,19,18,38,25.50
2015,05,19,18,39,25.50
2015,05,19,18,40,25.50
2015,05,19,18,41,25.60
2015,05,19,18,42,25.60
2015,05,19,18,43,25.60
2015,05,19,18,44,25.60
2015,05,19,18,45,25.60
2015,05,19,18,46,25.60
2015,05,19,18,47,25.60
2015,05,19,18,48,25.60
2015,05,19,18,49,25.60
2015,05,19,18,50,25.50
2015,05,19,18,51,25.30
2015,05,19,18,52,25.10
2015,05,19,18,53,25.00
2015,05,19,18,54,24.90
2015,05,19,18,55,24.90
2015,05,19,18,56,25.00
2015,05,19,18,57,25.00
2015,05,19,18,58,25.10
2015,05,19,18,59,25.10
2015,05,19,19,00,25.20
2015,05,19,19,01,25.10
2015,05,19,19,02,25.10
2015,05,19,19,03,25.00
2015,05,19,19,04,24.80
2015,05,19,19,05,24.70
2015,05,19,19,06,24.60
2015,05,19,19,07,24.50
2015,05,19,19,08,24.30
2015,05,19,19,09,24.20
2015,05,19,19,10,24.20
2015,05,19,19,11,24.10
2015,05,19,19,12,24.10
2015,05,19,19,13,24.10
2015,05,19,19,14,24.10
2015,05,19,19,15,24.10
2015,05,19,19,16,24.10
2015,05,19,19,17,24.10
2015,05,19,19,18,24.10
2015,05,19,19,19,24.10
2015,05,19,19,20,24.10
2015,05,19,19,21,24.00
2015,05,19,19,22,24.00
2015,05,19,19,23,23.90
2015,05,19,19,24,23.90
2015,05,19,19,25,23.90
2015,05,19,19,26,23.90
2015,05,19,19,27,23.90
2015,05,19,19,28,23.90
2015,05,19,19,29,23.80
2015,05,19,19,30,23.80
2015,05,19,19,31,23.80
2015,05,19,19,32,23.70
2015,05,19,19,33,23.70
2015,05,19,19,34,23.60
2015,05,19,19,35,23.60
2015,05,19,19,36,23.50
2015,05,19,19,37,23.40
2015,05,19,19,38,23.30
2015,05,19,19,39,23.30
2015,05,19,19,40,23.20
2015,05,19,19,41,23.20
2015,05,19,19,42,23.10
2015,05,19,19,43,23.10
2015,05,19,19,44,23.00
2015,05,19,19,45,22.90
2015,05,19,19,46,22.80
2015,05,19,19,47,22.80
2015,05,19,19,48,22.80
2015,05,19,19,49,22.70
2015,05,19,19,50,22.70
2015,05,19,19,51,22.60
2015,05,19,19,52,22.60
2015,05,19,19,53,22.60
2015,05,19,19,54,22.50
2015,05,19,19,55,22.40
2015,05,19,19,56,22.40
2015,05,19,19,57,22.40
2015,05,19,19,58,22.30
2015,05,19,19,59,22.30
2015,05,19,20,00,22.30
2015,05,19,20,01,22.20
2015,05,19,20,02,22.20
2015,05,19,20,03,22.20
2015,05,19,20,04,22.10
2015,05,19,20,05,22.10
2015,05,19,20,06,22.00
2015,05,19,20,07,22.00
2015,05,19,20,08,21.90
2015,05,19,20,09,21.80
2015,05,19,20,10,21.80
2015,05,19,20,11,21.70
2015,05,19,20,12,21.60
2015,05,19,20,13,21.50
2015,05,19,20,14,21.40
2015,05,19,20,15,21.30
2015,05,19,20,16,21.20
2015,05,19,20,17,21.10
2015,05,19,20,18,21.00
2015,05,19,20,19,20.90
2015,05,19,20,20,20.80
2015,05,19,20,21,20.80
2015,05,19,20,22,20.80
2015,05,19,20,23,20.80
2015,05,19,20,24,20.80
2015,05,19,20,25,20.80
2015,05,19,20,26,20.80
2015,05,19,20,27,20.80
2015,05,19,20,28,20.80
2015,05,19,20,29,20.80
2015,05,19,20,30,20.80
2015,05,19,20,31,20.80
